[[{"header":{"parameterUnit":"m.s-1","parameterCategory":1,"la1":30.2991,"la2":30.254,"lo1":-89.0895,"lo2":-89.0444,"dy":0.0017,"dx":0.0017,"nx":28,"ny":28,"refTime":"2024-03-17T21:00:00:Z","depth":0,"parameterNumber":2,"parameterNumberName":"U-component_of_WINDS"},"data":[0,0,0,0,0,0,0,0,0,0,0,0,0,0,0,0,0,0,0,0,0,0,0,0,0,0,0,0,0,0,0,0,0,0,0,0,0,0,0,0,0,0,0,0,0,0,0,0,0,0,0,0,0,0,0,0,0,0,0.2643,0.2643,0,0.2633,0.2633,0.2633,0.2657,0.2658,0.2659,0.2659,0.2647,0.2646,0.2645,0,0,0,0,0,0,0,0,0,0,0,0,0,0.2682,0.2681,0.2643,0.2643,0.2643,0.2633,0.2633,0.2633,0.2657,0.2658,0.2659,0.266,0.2647,0.2646,0.2645,0,0,0,0,0,0,0,0,0,0,0,0,0,0.2667,0.268,0.2643,0.2654,0.2655,0.2633,0.2633,0.2633,0.2657,0.2658,0.2659,0.266,0.2647,0.2646,0.2644,0.2611,0,0,0.264,0.2639,0,0,0,0,0,0,0,0,0.2668,0.2666,0.2652,0.2653,0.2654,0.2648,0.2642,0.2625,0.2656,0.2656,0.2659,0.2661,0.2646,0.2645,0.264,0.2611,0.261,0.2639,0.2638,0.2638,0.2637,0,0,0,0,0,0,0,0.2669,0.2667,0.2639,0.2652,0.2653,0.2659,0.2658,0.2639,0.2644,0.2656,0.2658,0.2656,0.2647,0.2641,0.264,0.261,0.2639,0.2638,0.2637,0.2636,0.2553,0.2552,0,0,0,0,0,0,0.2669,0.2667,0.2639,0.2639,0.2664,0.2657,0.2656,0.2648,0.2645,0.2645,0.2655,0.2658,0.2644,0.2642,0.264,0.26,0.2638,0.2636,0.2635,0.2555,0.2553,0.2552,0,0,0,0,0,0,0.267,0.2666,0.264,0.2653,0.2651,0.2655,0.2646,0.2648,0.2642,0.2644,0.2645,0.2649,0.2644,0.2642,0.2618,0.26,0.2636,0.2634,0.2556,0.2554,0.2553,0.2521,0,0,0,0,0,0,0.2671,0.2666,0.2654,0.2653,0.265,0.2619,0.2645,0.2646,0.264,0.2643,0.2639,0.2639,0.2645,0.2621,0.2617,0.2599,0.2633,0.2558,0.2555,0.2553,0.2524,0.2519,0.2514,0,0,0,0,0,0.2672,0.2645,0.2653,0.265,0.2634,0.2618,0.2616,0.2624,0.2638,0.2626,0.2627,0.2639,0.2603,0.2618,0.2614,0.2595,0.2559,0.2556,0.2553,0.2526,0.252,0.2514,0,0,0,0,0,0,0.2642,0.2645,0.2654,0.2626,0.2622,0.2622,0.2606,0.2617,0.2607,0.261,0.262,0.2619,0.2594,0.2592,0.2609,0.2563,0.2583,0.258,0.2564,0.2558,0.2553,0.2553,0.2632,0,0,0,0,0,0.2633,0.262,0.2623,0.2598,0.2595,0.2601,0.2594,0.2601,0.2596,0.2594,0.2594,0.2588,0.2576,0.2567,0.2556,0.2525,0.2524,0.251,0.2505,0.2501,0.2497,0.248,0.2474,0.2543,0.2543,0.2543,0,0,0.2612,0.2612,0.2603,0.2592,0.2589,0.2575,0.2599,0.2583,0.2572,0.2592,0.2569,0.2569,0.2564,0.2536,0.2524,0.2534,0.2478,0.2497,0.2494,0.2492,0.2477,0.247,0.2464,0.2541,0.2541,0.2541,0,0,0.2567,0.2566,0.2545,0.2543,0.2539,0.2543,0.2539,0.2538,0.2538,0.2517,0.2531,0.2519,0.2497,0.2493,0.2488,0.2444,0.2454,0.244,0.2413,0.2396,0.2391,0.2386,0.2369,0.2363,0.2436,0.2436,0.2436,0,0.2541,0.2521,0.2533,0.2516,0.251,0.2529,0.2508,0.2504,0.2497,0.2492,0.2504,0.2478,0.2476,0.2448,0.2437,0.2433,0.2427,0.2439,0.2391,0.2386,0.2382,0.2366,0.236,0.2434,0.2434,0.2435,0.2435,0,0.249,0.2475,0.2459,0.2452,0.2445,0.2426,0.2434,0.2426,0.2434,0.2437,0.2415,0.2414,0.2402,0.2397,0.2404,0.237,0.2376,0.239,0.241,0.2373,0.2359,0.2353,0.2432,0.2432,0.2433,0.2433,0,0,0.2422,0.2425,0.2418,0.2415,0.2414,0.2403,0.2385,0.2375,0.2367,0.2362,0.2346,0.2329,0.2342,0.2336,0.2344,0.233,0.2294,0.2345,0.2345,0.2334,0.2255,0.2243,0.2236,0.2302,0.2301,0.23,0.2255,0,0.2377,0.2347,0.2358,0.2326,0.2313,0.2332,0.2317,0.2314,0.2317,0.2306,0.2309,0.2296,0.2315,0.2311,0.2299,0.2301,0.2278,0.2304,0.2286,0.2285,0.2285,0.2228,0.2216,0.2173,0.2249,0.2248,0.2248,0,0.2319,0.2313,0.228,0.2282,0.2277,0.2263,0.2255,0.2245,0.2242,0.2245,0.224,0.2251,0.2233,0.2256,0.2231,0.2249,0.2243,0.2243,0.2242,0.2238,0.2263,0.2222,0.216,0.2153,0.2239,0.2239,0.224,0,0.2272,0.2256,0.2234,0.2232,0.2233,0.2223,0.2223,0.2222,0.2215,0.2209,0.2205,0.2196,0.2191,0.2183,0.2192,0.2207,0.2166,0.2189,0.2167,0.2166,0.2155,0.2155,0.2089,0.2154,0.2154,0.2154,0.2155,0,0.2219,0.2198,0.2213,0.2199,0.2177,0.219,0.2167,0.217,0.2169,0.2156,0.2172,0.216,0.2172,0.2161,0.2168,0.2146,0.2144,0.2145,0.2147,0.2142,0.2142,0.2137,0.2139,0.2153,0.2153,0.2153,0.2154,0,0.2161,0.2171,0.2148,0.2153,0.2153,0.2136,0.2139,0.2127,0.2133,0.2116,0.2113,0.2121,0.2108,0.2117,0.2104,0.2109,0.208,0.2086,0.208,0.2081,0.2059,0.206,0.1985,0.1976,0.2048,0.2048,0.2047,0,0.2125,0.211,0.2113,0.2106,0.2105,0.2094,0.2088,0.2101,0.2094,0.2092,0.2079,0.2069,0.206,0.204,0.2044,0.2034,0.204,0.2015,0.2038,0.2035,0.2038,0.2038,0.2036,0.2009,0.2008,0.2007,0.2007,0,0.206,0.2066,0.2058,0.2051,0.2044,0.2039,0.2035,0.2029,0.2042,0.2034,0.2022,0.2016,0.2004,0.1993,0.1985,0.1985,0.1997,0.2,0.1994,0.1988,0.1985,0.1985,0.2065,0.2001,0.2001,0.2002,0.2002,0.2002,0.2011,0.1999,0.1999,0.1989,0.1989,0.1985,0.1974,0.1979,0.1969,0.1961,0.197,0.1955,0.1954,0.1946,0.1944,0.1933,0.1943,0.1935,0.1932,0.193,0.1926,0.1989,0.1932,0.1932,0.1932,0.1932,0.1932,0,0.1946,0.1948,0.1939,0.1934,0.1926,0.1942,0.1939,0.1931,0.1918,0.1917,0.1909,0.1896,0.1886,0.189,0.1881,0.1871,0.1877,0.1868,0.1868,0.1867,0.1918,0.1923,0.1864,0.1864,0.1864,0.1864,0.1864,0.1864,0.1911,0.189,0.1897,0.1876,0.1878,0.1865,0.1862,0.1859,0.1858,0.1842,0.1834,0.1838,0.1839,0.1831,0.1822,0.1824,0.1819,0.1808,0.1811,0.1857,0.1864,0.187,0.1875,0.1807,0.1807,0.1762,0.1761,0.1761]},{"header":{"parameterUnit":"m.s-1","parameterCategory":1,"la1":30.2991,"la2":30.254,"lo1":-89.0895,"lo2":-89.0444,"dy":0.0017,"dx":0.0017,"nx":28,"ny":28,"refTime":"2024-03-17T21:00:00:Z","depth":0,"parameterNumber":3,"parameterNumberName":"V-component_of_WINDS"},"data":[0,0,0,0,0,0,0,0,0,0,0,0,0,0,0,0,0,0,0,0,0,0,0,0,0,0,0,0,0,0,0,0,0,0,0,0,0,0,0,0,0,0,0,0,0,0,0,0,0,0,0,0,0,0,0,0,0,0,-4.9488,-4.9489,0,-4.959,-4.9591,-4.9593,-4.9531,-4.9528,-4.9525,-4.9522,-4.9623,-4.9628,-4.9634,0,0,0,0,0,0,0,0,0,0,0,0,0,-4.9237,-4.9242,-4.9488,-4.9489,-4.9491,-4.959,-4.9591,-4.9593,-4.9531,-4.9528,-4.9524,-4.9521,-4.9621,-4.9628,-4.9634,0,0,0,0,0,0,0,0,0,0,0,0,0,-4.9343,-4.9243,-4.9488,-4.9472,-4.9472,-4.959,-4.9592,-4.9593,-4.9532,-4.9528,-4.9523,-4.9519,-4.9619,-4.9627,-4.9635,-4.9773,0,0,-4.966,-4.9664,0,0,0,0,0,0,0,0,-4.9337,-4.9352,-4.9473,-4.9473,-4.9473,-4.9543,-4.954,-4.9653,-4.9533,-4.9509,-4.9522,-4.9517,-4.96,-4.9609,-4.9638,-4.9778,-4.9782,-4.9661,-4.9666,-4.9669,-4.9671,0,0,0,0,0,0,0,-4.933,-4.9348,-4.9528,-4.9475,-4.9475,-4.9459,-4.9469,-4.9561,-4.9578,-4.9511,-4.9507,-4.952,-4.9599,-4.963,-4.964,-4.9784,-4.966,-4.9668,-4.9673,-4.9676,-5.0043,-5.0047,0,0,0,0,0,0,-4.9324,-4.9342,-4.9525,-4.9531,-4.9393,-4.9467,-4.9478,-4.9525,-4.9577,-4.958,-4.9523,-4.9517,-4.9619,-4.9631,-4.9643,-4.9809,-4.9669,-4.9677,-4.9681,-5.0038,-5.0044,-5.0049,0,0,0,0,0,0,-4.9319,-4.9341,-4.9521,-4.9436,-4.9457,-4.9476,-4.9529,-4.953,-4.9561,-4.9586,-4.9589,-4.9553,-4.9616,-4.9632,-4.9742,-4.9812,-4.968,-4.9688,-5.0032,-5.004,-5.0047,-5.0142,0,0,0,0,0,0,-4.9312,-4.934,-4.9393,-4.9437,-4.9462,-4.9619,-4.9533,-4.9535,-4.9576,-4.9567,-4.9614,-4.9618,-4.9613,-4.973,-4.975,-4.9821,-4.9694,-5.0026,-5.0036,-5.0044,-5.0133,-5.0152,-5.0168,0,0,0,0,0,-4.9303,-4.9415,-4.9396,-4.9419,-4.953,-4.9623,-4.9637,-4.9631,-4.9581,-4.9635,-4.9651,-4.9616,-4.9801,-4.9742,-4.9764,-4.9838,-5.0022,-5.0033,-5.0043,-5.0125,-5.0148,-5.0167,0,0,0,0,0,0,-4.9377,-4.942,-4.94,-4.953,-4.9574,-4.9613,-4.968,-4.9656,-4.9714,-4.9704,-4.9692,-4.9704,-4.9819,-4.9839,-4.9773,-4.9975,-4.9903,-4.9919,-4.9958,-4.998,-4.9997,-4.999,-4.9701,0,0,0,0,0,-4.9409,-4.9482,-4.9516,-4.9627,-4.965,-4.9662,-4.9702,-4.9694,-4.9738,-4.9756,-4.978,-4.9824,-4.9892,-4.9936,-5.0,-5.0135,-5.0144,-5.0197,-5.0214,-5.0228,-5.0243,-5.0316,-5.034,-5.0085,-5.0085,-5.0085,0,0,-4.9474,-4.9507,-4.9554,-4.9642,-4.9675,-4.9751,-4.9677,-4.976,-4.9817,-4.9768,-4.9874,-4.9894,-4.9941,-5.0065,-5.012,-5.0085,-5.0315,-5.0242,-5.0254,-5.026,-5.033,-5.0354,-5.0375,-5.0093,-5.0091,-5.009,0,0,-4.9633,-4.9665,-4.9761,-4.9796,-4.9848,-4.9855,-4.9878,-4.9922,-4.9933,-5.004,-5.0005,-5.0071,-5.0188,-5.0224,-5.0257,-5.043,-5.04,-5.045,-5.0543,-5.0614,-5.0634,-5.0652,-5.0715,-5.0737,-5.0464,-5.0464,-5.0465,0,-4.9707,-4.9821,-4.9813,-4.99,-4.994,-4.9901,-4.9999,-5.0032,-5.0101,-5.013,-5.0089,-5.0236,-5.0265,-5.0397,-5.0439,-5.0467,-5.0493,-5.0446,-5.0632,-5.065,-5.0667,-5.0726,-5.0749,-5.047,-5.047,-5.0469,-5.0469,0,-4.9911,-4.9991,-5.0062,-5.0132,-5.018,-5.0271,-5.0277,-5.0326,-5.0313,-5.0324,-5.0433,-5.0467,-5.0537,-5.0567,-5.0555,-5.0698,-5.0674,-5.0634,-5.0562,-5.0697,-5.0753,-5.0775,-5.0479,-5.0477,-5.0475,-5.0474,0,0,-5.0119,-5.0184,-5.0211,-5.0242,-5.0296,-5.0357,-5.0446,-5.0517,-5.0559,-5.0608,-5.0683,-5.0783,-5.0746,-5.0784,-5.0775,-5.0838,-5.0974,-5.079,-5.0791,-5.0824,-5.1133,-5.1165,-5.1191,-5.0954,-5.0958,-5.0962,-5.113,0,-5.0282,-5.044,-5.0436,-5.0582,-5.0656,-5.062,-5.0698,-5.0739,-5.0752,-5.0815,-5.0828,-5.09,-5.0845,-5.0868,-5.0928,-5.0945,-5.1036,-5.0932,-5.1023,-5.1026,-5.1014,-5.122,-5.1253,-5.141,-5.1151,-5.1155,-5.1158,0,-5.0493,-5.0551,-5.0705,-5.075,-5.078,-5.0851,-5.0915,-5.0976,-5.1022,-5.1026,-5.107,-5.1051,-5.1141,-5.1066,-5.119,-5.1119,-5.1156,-5.1169,-5.1175,-5.1184,-5.1101,-5.1235,-5.146,-5.1484,-5.1192,-5.1189,-5.1186,0,-5.063,-5.0747,-5.0855,-5.0882,-5.0936,-5.0987,-5.1011,-5.1053,-5.1095,-5.1151,-5.1179,-5.1243,-5.1279,-5.1329,-5.1328,-5.1274,-5.1454,-5.1379,-5.146,-5.146,-5.15,-5.1498,-5.1735,-5.1522,-5.1522,-5.1521,-5.1521,0,-5.0813,-5.0909,-5.0917,-5.0984,-5.109,-5.1084,-5.1189,-5.1208,-5.1246,-5.1315,-5.1286,-5.1351,-5.1346,-5.1411,-5.1411,-5.1514,-5.1529,-5.1535,-5.1534,-5.1539,-5.1538,-5.1563,-5.1553,-5.1528,-5.1526,-5.1525,-5.1524,0,-5.0985,-5.0995,-5.111,-5.1152,-5.1165,-5.1242,-5.1277,-5.134,-5.135,-5.1437,-5.1457,-5.1473,-5.1549,-5.1553,-5.1639,-5.1639,-5.1764,-5.175,-5.175,-5.1748,-5.1829,-5.1822,-5.2091,-5.2127,-5.189,-5.1892,-5.1894,0,-5.1102,-5.1175,-5.1226,-5.1271,-5.1299,-5.1371,-5.1415,-5.1411,-5.1458,-5.1516,-5.1572,-5.1645,-5.1704,-5.1826,-5.1844,-5.191,-5.1898,-5.1988,-5.1908,-5.191,-5.1901,-5.1897,-5.1905,-5.2004,-5.2007,-5.2009,-5.2011,0,-5.1308,-5.1309,-5.1375,-5.1442,-5.1496,-5.1548,-5.1597,-5.1635,-5.1636,-5.169,-5.1768,-5.1814,-5.1903,-5.1976,-5.2041,-5.2064,-5.2038,-5.2036,-5.2058,-5.2064,-5.2061,-5.2065,-5.1794,-5.203,-5.2028,-5.2026,-5.2025,-5.2025,-5.1457,-5.1521,-5.1567,-5.1641,-5.1677,-5.1724,-5.1785,-5.1804,-5.1869,-5.1943,-5.1936,-5.2022,-5.2066,-5.215,-5.2179,-5.2246,-5.2215,-5.2247,-5.2256,-5.2264,-5.2273,-5.205,-5.2257,-5.2257,-5.2256,-5.2256,-5.2255,0,-5.1663,-5.1691,-5.1759,-5.1829,-5.1887,-5.1858,-5.1911,-5.1961,-5.2038,-5.2081,-5.214,-5.223,-5.23,-5.2325,-5.2393,-5.2442,-5.2432,-5.246,-5.2457,-5.2463,-5.2297,-5.2271,-5.2468,-5.2468,-5.2468,-5.2468,-5.2467,-5.2467,-5.1777,-5.1884,-5.1891,-5.2016,-5.2042,-5.2129,-5.2161,-5.2204,-5.2238,-5.2341,-5.24,-5.2416,-5.2452,-5.2523,-5.2586,-5.2591,-5.2618,-5.2652,-5.2652,-5.2496,-5.2475,-5.2455,-5.243,-5.2658,-5.2658,-5.2813,-5.2815,-5.2816]}]]